User: anonymous   Login
Location: Unspecified
(40.8819°N, 0.0000°E)
Time: 15:06:57
(UTC+00:00)
Language:

Envisat - Orbit

View from above orbital plane
View from above orbital plane
View from above satellite
View from above satellite

Ground track
Ground track

The orbit data is extracted from the following two-line orbital elements,

1 27386U 02009A   24202.54963896  .00000372  00000-0  13512-3 0  9994
2 27386  98.2843 162.4825 0001391  84.5165 342.8122 14.38610282173371
Epoch (UTC): 20 July 2024 13:11:28
Eccentricity: 0.0001391
inclination: 98.2843°
perigee height: 762 km
apogee height: 764 km
right ascension of ascending node: 162.4825°
argument of perigee: 84.5165°
revolutions per day: 14.38610282
mean anomaly at epoch: 342.8122°
orbit number at epoch: 17337

The dashed part of the orbit path shows where the satellite is in the earth's shadow,  

DLR